Location: Wroclaw
(51.1100°N, 17.0222°E)
Time: 03:24:37
(UTC+02:00)

ISS - Visible Passes

Search period start: 23 September 2018 00:00
Search period end: 03 October 2018 00:00
Orbit: 403 x 408 km, 51.6° (Epoch: 23 September)

Date Brightness Start Highest point End Pass type
(mag) Time Alt. Az. Time Alt. Az. Time Alt. Az.
23 Sep -1.7 19:37:01 10° SSE 19:38:35 13° SE 19:39:38 12° ESE visible
23 Sep -1.6 21:11:19 10° SW 21:12:21 18° SW 21:12:21 18° SW visible
24 Sep -3.1 20:19:42 10° SW 20:22:43 34° SSE 20:22:54 34° SE visible
25 Sep -2.4 19:28:17 10° SSW 19:30:58 23° SE 19:33:18 12° E visible
25 Sep -2.5 21:03:52 10° WSW 21:05:59 36° WSW 21:05:59 36° WSW visible
26 Sep -3.7 20:12:02 10° WSW 20:15:17 57° SSE 20:16:15 38° E visible
26 Sep -0.7 21:48:27 10° W 21:48:56 13° W 21:48:56 13° W visible
27 Sep -3.2 19:20:19 10° SW 19:23:25 40° SSE 19:26:26 11° E visible
27 Sep -3.1 20:56:30 10° W 20:59:06 52° W 20:59:06 52° W visible
28 Sep -3.9 20:04:34 10° WSW 20:07:52 83° SSE 20:09:12 33° E visible
28 Sep -0.9 21:41:06 10° W 21:41:52 16° W 21:41:52 16° W visible
29 Sep -3.7 19:12:39 10° WSW 19:15:56 65° SSE 19:19:13 10° E visible
29 Sep -3.3 20:49:08 10° W 20:51:54 58° WNW 20:51:54 58° WNW visible
30 Sep -3.8 19:57:08 10° W 20:00:27 81° N 20:01:54 31° E visible
30 Sep -0.9 21:33:42 10° W 21:34:34 17° W 21:34:34 17° W visible
01 Oct -3.8 19:05:09 10° WSW 19:08:28 89° SSE 19:11:46 10° E visible
01 Oct -3.4 20:41:43 10° W 20:44:32 62° WNW 20:44:32 62° WNW visible
02 Oct -3.8 19:49:41 10° W 19:53:01 80° N 19:54:30 30° E visible
02 Oct -1.0 21:26:15 10° W 21:27:09 17° W 21:27:09 17° W visible
